Location: Newark
(25.4800°N, 85.7200°E)
Time: 01:28:12
(UTC+00:00)

Transit 4A - Pass Details

Date: 25 August 2019
Orbit: 867 x 978 km, 66.8° (Epoch: 23 October)

Event Time Altitude Azimuth Distance (km) Brightness Sun altitude
Rises 09:32:45 0° 157° (SSE) 3,629 10.9 42.1°
Reaches altitude 10° 09:36:37 10° 134° (SE) 2,702 10.1 41.2°
Maximum altitude 09:39:47 14° 103° (ESE) 2,410 9.8 40.5°
Drops below altitude 10° 09:42:58 10° 73° (ENE) 2,721 10.0 39.8°
Sets 09:46:51 0° 50° (NE) 3,674 10.6 38.9°
